| time (UTC) | temp C | wind direction | speed KPH | gust KPH | rain 1hr cm | rain 24hr cm | rain mn cm | humidity % | barometer mb |
| 20260507160057 | 22 | 259 | 0.0 | 6.4 | 0.00 | 0.00 | 0.00 | 27 | 1009.3 |
| 20260507154535 | 21 | 321 | 1.6 | 6.4 | 0.00 | 0.00 | 0.00 | 29 | 1009.3 |
| 20260507153033 | 20 | 274 | 0.0 | 1.6 | 0.00 | 0.00 | 0.00 | 30 | 1009.5 |
| 20260507151529 | 20 | 224 | 0.0 | 1.6 | 0.00 | 0.00 | 0.00 | 32 | 1009.5 |
| 20260507150025 | 19 | 136 | 0.0 | 0.0 | 0.00 | 0.00 | 0.00 | 34 | 1009.7 |
| 20260507144532 | 19 | 108 | 0.0 | 1.6 | 0.00 | 0.00 | 0.00 | 35 | 1009.6 |
| 20260507143020 | 18 | 170 | 0.0 | 0.0 | 0.00 | 0.00 | 0.00 | 36 | 1009.8 |
| 20260507141523 | 18 | 176 | 0.0 | 0.0 | 0.00 | 0.00 | 0.00 | 39 | 1009.8 |
| 20260507140014 | 17 | 176 | 0.0 | 0.0 | 0.00 | 0.00 | 0.00 | 43 | 1009.8 |
| 20260507134512 | 16 | 46 | 0.0 | 0.0 | 0.00 | 0.00 | 0.00 | 45 | 1009.7 |
| 20260507133013 | 13 | 46 | 0.0 | 0.0 | 0.00 | 0.00 | 0.00 | 51 | 1009.7 |
| 20260507131510 | 12 | 46 | 0.0 | 0.0 | 0.00 | 0.00 | 0.00 | 52 | 1009.7 |
| 20260507130024 | 13 | 46 | 0.0 | 0.0 | 0.00 | 0.00 | 0.00 | 49 | 1009.4 |
| 20260507124512 | 12 | 46 | 0.0 | 0.0 | 0.00 | 0.00 | 0.00 | 47 | 1009.3 |
| 20260507123008 | 12 | 20 | 0.0 | 0.0 | 0.00 | 0.00 | 0.00 | 50 | 1009.2 |
| 20260507121508 | 12 | 20 | 0.0 | 0.0 | 0.00 | 0.00 | 0.00 | 49 | 1009.1 |
| 20260507120010 | 12 | 20 | 0.0 | 1.6 | 0.00 | 0.00 | 0.00 | 50 | 1009.3 |
| 20260507114504 | 12 | 349 | 0.0 | 0.0 | 0.00 | 0.00 | 0.00 | 49 | 1009.3 |
| 20260507113003 | 13 | 342 | 0.0 | 1.6 | 0.00 | 0.00 | 0.00 | 46 | 1009.3 |
| 20260507111503 | 12 | 351 | 0.0 | 0.0 | 0.00 | 0.00 | 0.00 | 51 | 1009.3 |
| 20260507110059 | 13 | 351 | 0.0 | 0.0 | 0.00 | 0.00 | 0.00 | 53 | 1009.4 |
| 20260507104556 | 13 | 351 | 0.0 | 0.0 | 0.00 | 0.00 | 0.00 | 51 | 1009.4 |
| 20260507103053 | 14 | 351 | 0.0 | 0.0 | 0.00 | 0.00 | 0.00 | 50 | 1009.2 |
| 20260507101602 | 15 | 351 | 0.0 | 1.6 | 0.00 | 0.00 | 0.00 | 40 | 1009.2 |
| 20260507100050 | 14 | 328 | 0.0 | 1.6 | 0.00 | 0.00 | 0.00 | 40 | 1009.3 |
| 20260507094549 | 15 | 326 | 0.0 | 0.0 | 0.00 | 0.00 | 0.00 | 40 | 1009.3 |
| 20260507093047 | 15 | 326 | 0.0 | 1.6 | 0.00 | 0.00 | 0.00 | 42 | 1009.4 |
| 20260507091545 | 15 | 326 | 0.0 | 3.2 | 0.00 | 0.00 | 0.00 | 41 | 1009.7 |
| 20260507090043 | 15 | 326 | 1.6 | 3.2 | 0.00 | 0.00 | 0.00 | 40 | 1009.9 |
| 20260507084544 | 16 | 325 | 1.6 | 3.2 | 0.00 | 0.00 | 0.00 | 37 | 1009.9 |
| 20260507083041 | 15 | 325 | 1.6 | 3.2 | 0.00 | 0.00 | 0.00 | 38 | 1009.8 |
| 20260507081540 | 16 | 314 | 0.0 | 3.2 | 0.00 | 0.00 | 0.00 | 41 | 1010.0 |
| 20260507080040 | 16 | 335 | 1.6 | 4.8 | 0.00 | 0.00 | 0.00 | 39 | 1009.9 |
| 20260507074539 | 15 | 335 | 1.6 | 3.2 | 0.00 | 0.00 | 0.00 | 44 | 1009.9 |
| 20260507073036 | 15 | 338 | 0.0 | 3.2 | 0.00 | 0.00 | 0.00 | 48 | 1009.8 |
| 20260507071533 | 15 | 97 | 0.0 | 0.0 | 0.00 | 0.00 | 0.00 | 45 | 1010.0 |
| 20260507070031 | 15 | 97 | 0.0 | 0.0 | 0.00 | 0.00 | 0.00 | 42 | 1009.9 |
| 20260507064530 | 15 | 97 | 0.0 | 1.6 | 0.00 | 0.00 | 0.00 | 44 | 1009.8 |
| 20260507063032 | 15 | 97 | 0.0 | 0.0 | 0.00 | 0.00 | 0.00 | 46 | 1009.8 |
| 20260507061529 | 16 | 97 | 0.0 | 0.0 | 0.00 | 0.00 | 0.00 | 42 | 1009.7 |
| 20260507060029 | 17 | 97 | 0.0 | 1.6 | 0.00 | 0.00 | 0.00 | 35 | 1009.7 |
| 20260507054528 | 17 | 97 | 0.0 | 1.6 | 0.00 | 0.00 | 0.00 | 37 | 1009.5 |
| 20260507053028 | 16 | 97 | 0.0 | 0.0 | 0.00 | 0.00 | 0.00 | 46 | 1009.4 |
| 20260507051527 | 17 | 97 | 0.0 | 1.6 | 0.00 | 0.00 | 0.00 | 44 | 1009.4 |
| 20260507050035 | 17 | 100 | 0.0 | 0.0 | 0.00 | 0.00 | 0.00 | 40 | 1009.2 |
| 20260507044526 | 18 | 100 | 0.0 | 1.6 | 0.00 | 0.00 | 0.00 | 34 | 1009.2 |
| 20260507043024 | 18 | 100 | 0.0 | 0.0 | 0.00 | 0.00 | 0.00 | 34 | 1009.2 |
| 20260507041538 | 18 | 100 | 0.0 | 0.0 | 0.00 | 0.00 | 0.00 | 34 | 1009.1 |
| 20260507040023 | 18 | 100 | 0.0 | 0.0 | 0.00 | 0.00 | 0.00 | 37 | 1009.0 |
| 20260507034521 | 20 | 100 | 0.0 | 0.0 | 0.00 | 0.00 | 0.00 | 34 | 1008.8 |
| 20260507033021 | 19 | 100 | 0.0 | 0.0 | 0.00 | 0.00 | 0.00 | 35 | 1008.6 |
| 20260507031520 | 20 | 100 | 0.0 | 4.8 | 0.00 | 0.00 | 0.00 | 30 | 1008.6 |
| 20260507030019 | 20 | 314 | 0.0 | 0.0 | 0.00 | 0.00 | 0.00 | 34 | 1008.4 |
| 20260507024519 | 21 | 313 | 0.0 | 1.6 | 0.00 | 0.00 | 0.00 | 30 | 1008.3 |
| 20260507023018 | 21 | 313 | 0.0 | 4.8 | 0.00 | 0.00 | 0.00 | 25 | 1008.1 |
| 20260507021518 | 22 | 323 | 0.0 | 0.0 | 0.00 | 0.00 | 0.00 | 25 | 1008.1 |
| 20260507020017 | 23 | 323 | 0.0 | 6.4 | 0.00 | 0.00 | 0.00 | 24 | 1007.9 |
| 20260507014525 | 24 | 306 | 3.2 | 8.0 | 0.00 | 0.00 | 0.00 | 22 | 1007.9 |
| 20260507013031 | 25 | 310 | 3.2 | 8.0 | 0.00 | 0.00 | 0.00 | 22 | 1007.9 |
| 20260507011530 | 25 | 314 | 4.8 | 12.9 | 0.00 | 0.00 | 0.00 | 21 | 1007.9 |
| 20260507010014 | 25 | 332 | 4.8 | 12.9 | 0.00 | 0.00 | 0.00 | 21 | 1007.9 |
| 20260507004517 | 25 | 316 | 3.2 | 14.5 | 0.00 | 0.00 | 0.00 | 21 | 1007.9 |
| 20260507003012 | 26 | 291 | 4.8 | 11.3 | 0.00 | 0.00 | 0.00 | 21 | 1007.9 |
| 20260507001513 | 26 | 333 | 3.2 | 8.0 | 0.00 | 0.00 | 0.00 | 22 | 1007.9 |
| 20260507000022 | 25 | 303 | 4.8 | 12.9 | 0.00 | 0.00 | 0.00 | 21 | 1007.9 |
| 20260506234512 | 25 | 326 | 8.0 | 17.7 | 0.00 | 0.00 | 0.00 | 22 | 1007.9 |
| 20260506233010 | 26 | 307 | 8.0 | 14.5 | 0.00 | 0.00 | 0.00 | 21 | 1007.9 |
| 20260506231508 | 26 | 271 | 1.6 | 11.3 | 0.00 | 0.00 | 0.00 | 22 | 1008.0 |
| 20260506230008 | 26 | 257 | 6.4 | 14.5 | 0.00 | 0.00 | 0.00 | 22 | 1008.1 |
| 20260506224505 | 25 | 323 | 6.4 | 17.7 | 0.00 | 0.00 | 0.00 | 23 | 1008.2 |
| 20260506223005 | 26 | 307 | 6.4 | 14.5 | 0.00 | 0.00 | 0.00 | 23 | 1008.3 |
| 20260506221604 | 26 | 236 | 1.6 | 11.3 | 0.00 | 0.00 | 0.00 | 23 | 1008.4 |
| 20260506220057 | 25 | 270 | 3.2 | 19.3 | 0.00 | 0.00 | 0.00 | 24 | 1008.6 |
| 20260506214607 | 24 | 284 | 3.2 | 14.5 | 0.00 | 0.00 | 0.00 | 26 | 1008.7 |
| 20260506213053 | 25 | 313 | 8.0 | 17.7 | 0.00 | 0.00 | 0.00 | 26 | 1008.9 |
| 20260506211550 | 25 | 319 | 3.2 | 9.7 | 0.00 | 0.00 | 0.00 | 27 | 1009.2 |
| 20260506210050 | 24 | 323 | 6.4 | 9.7 | 0.00 | 0.00 | 0.00 | 27 | 1009.3 |
| 20260506204549 | 24 | 289 | 1.6 | 11.3 | 0.00 | 0.00 | 0.00 | 28 | 1009.5 |
| 20260506203049 | 24 | 126 | 3.2 | 8.0 | 0.00 | 0.00 | 0.00 | 28 | 1009.7 |
| 20260506201544 | 23 | 333 | 1.6 | 6.4 | 0.00 | 0.00 | 0.00 | 30 | 1009.8 |
| 20260506200117 | 23 | 262 | 1.6 | 12.9 | 0.00 | 0.00 | 0.00 | 30 | 1010.0 |
| 20260506194543 | 23 | 316 | 3.2 | 9.7 | 0.00 | 0.00 | 0.00 | 31 | 1010.2 |
| 20260506193045 | 23 | 316 | 3.2 | 8.0 | 0.00 | 0.00 | 0.00 | 31 | 1010.4 |
| 20260506191541 | 23 | 106 | 4.8 | 12.9 | 0.00 | 0.00 | 0.00 | 29 | 1010.6 |
| 20260506190039 | 22 | 247 | 1.6 | 9.7 | 0.00 | 0.00 | 0.00 | 31 | 1010.8 |
| 20260506184536 | 22 | 256 | 3.2 | 11.3 | 0.00 | 0.00 | 0.00 | 32 | 1010.8 |
| 20260506183034 | 21 | 251 | 3.2 | 9.7 | 0.00 | 0.00 | 0.00 | 33 | 1011.0 |
| 20260506181535 | 21 | 322 | 1.6 | 9.7 | 0.00 | 0.00 | 0.00 | 37 | 1011.2 |
| 20260506180038 | 20 | 327 | 4.8 | 9.7 | 0.00 | 0.00 | 0.00 | 35 | 1011.4 |
| 20260506174529 | 20 | 279 | 1.6 | 9.7 | 0.00 | 0.00 | 0.00 | 37 | 1011.4 |
| 20260506173024 | 20 | 328 | 3.2 | 9.7 | 0.00 | 0.00 | 0.00 | 38 | 1011.4 |
| 20260506171537 | 19 | 317 | 1.6 | 8.0 | 0.00 | 0.00 | 0.00 | 39 | 1011.3 |
| 20260506170018 | 19 | 272 | 1.6 | 6.4 | 0.00 | 0.00 | 0.00 | 41 | 1011.5 |
| 20260506164516 | 18 | 279 | 4.8 | 9.7 | 0.00 | 0.00 | 0.00 | 45 | 1011.4 |
| 20260506163019 | 17 | 277 | 3.2 | 9.7 | 0.00 | 0.00 | 0.00 | 48 | 1011.3 |
| 20260506161519 | 17 | 251 | 0.0 | 6.4 | 0.00 | 0.00 | 0.00 | 48 | 1011.2 |